FW6664 Weather Reports


Display with metric or nautical units.
time (UTC)temp
F
wind
direction
speed
MPH
gust
MPH
rain 1hr
in
rain 24hr
in
rain mn
in
humidity
%
barometer
mb
20260905090336 63 217 0.0 0.0 0.00 0.00 0.00 33 1017.0
20260905090048 62 217 0.0 0.0 0.00 0.00 0.00 33 1017.0
20260905041543 66 233 0.0 1.0 0.00 0.00 0.00 33 1017.0
20260905041334 66 233 0.0 0.0 0.00 0.00 0.00 33 1017.0
20260905041037 66 233 0.0 1.0 0.00 0.00 0.00 33 1017.0
20260905040830 66 233 0.0 0.0 0.00 0.00 0.00 33 1017.0
20260905040530 66 233 0.0 2.0 0.00 0.00 0.00 33 1017.0
20260905040325 66 233 1.0 0.0 0.00 0.00 0.00 33 1017.0
20260905040027 66 233 1.0 2.0 0.00 0.00 0.00 33 1017.0
20260905035844 66 233 0.0 0.0 0.00 0.00 0.00 33 1017.0
20260905035520 66 233 1.0 1.0 0.00 0.00 0.00 33 1017.0
20260905035341 67 233 1.0 0.0 0.00 0.00 0.00 33 1017.0
20260905035015 66 233 0.0 2.0 0.00 0.00 0.00 33 1017.0
20260905034838 67 233 0.0 0.0 0.00 0.00 0.00 33 1017.0
20260905034509 66 233 0.0 2.0 0.00 0.00 0.00 33 1017.0
20260905034334 67 233 0.0 0.0 0.00 0.00 0.00 33 1017.0
20260905034101 67 233 1.0 2.0 0.00 0.00 0.00 33 1017.0
20260905034003 67 233 1.0 2.0 0.00 0.00 0.00 33 1017.0
20260905033831 67 233 2.0 0.0 0.00 0.00 0.00 33 1017.0
20260905033554 67 233 1.0 2.0 0.00 0.00 0.00 33 1017.0
20260905033325 67 233 2.0 0.0 0.00 0.00 0.00 33 1017.0
20260905033143 67 233 1.0 2.0 0.00 0.00 0.00 33 1017.0
20260905030348 69 279 2.0 0.0 0.00 0.00 0.00 33 1017.0
20260905030101 68 279 2.0 5.0 0.00 0.00 0.00 33 1017.0
20260905025826 69 279 1.0 0.0 0.00 0.00 0.00 33 1017.0
20260905025555 68 280 2.0 5.0 0.00 0.00 0.00 33 1017.0
20260905025324 69 224 4.0 0.0 0.00 0.00 0.00 33 1017.0
20260905025056 69 227 3.0 5.0 0.00 0.00 0.00 33 1017.0
20260905024843 69 225 3.0 0.0 0.00 0.00 0.00 33 1017.0
20260905024550 69 222 2.0 5.0 0.00 0.00 0.00 33 1017.0
20260905024339 70 221 3.0 0.0 0.00 0.00 0.00 33 1017.0
20260905024038 69 218 2.0 3.0 0.00 0.00 0.00 33 1017.0
20260905023834 70 218 3.0 0.0 0.00 0.00 0.00 33 1017.0
20260905023515 70 218 2.0 4.0 0.00 0.00 0.00 33 1017.0
20260905023333 70 218 4.0 0.0 0.00 0.00 0.00 33 1017.0
20260905023029 70 231 3.0 4.0 0.00 0.00 0.00 33 1017.0
20260905022849 71 232 2.0 0.0 0.00 0.00 0.00 33 1017.0
20260905022539 70 235 4.0 4.0 0.00 0.00 0.00 33 1017.0
20260905022326 71 225 5.0 0.0 0.00 0.00 0.00 33 1017.0
20260905022037 71 225 2.0 3.0 0.00 0.00 0.00 33 1017.0
20260905021827 72 225 2.0 0.0 0.00 0.00 0.00 33 1017.0
20260905021531 71 225 1.0 5.0 0.00 0.00 0.00 33 1017.0
20260905021324 72 225 5.0 0.0 0.00 0.00 0.00 33 1017.0
20260905021024 72 225 3.0 5.0 0.00 0.00 0.00 33 1017.0
20260905020843 73 225 3.0 0.0 0.00 0.00 0.00 33 1017.0
20260905020525 73 232 2.0 4.0 0.00 0.00 0.00 33 1017.0
20260905020339 73 232 3.0 0.0 0.00 0.00 0.00 33 1017.0
20260905020022 73 221 3.0 4.0 0.00 0.00 0.00 33 1017.0
20260905015832 74 250 2.0 0.0 0.00 0.00 0.00 33 1017.0
20260905015504 73 215 2.0 5.0 0.00 0.00 0.00 33 1017.0
20260905015348 74 227 3.0 0.0 0.00 0.00 0.00 33 1017.0
20260905015036 74 216 3.0 6.0 0.00 0.00 0.00 33 1017.0
20260905014825 75 221 5.0 0.0 0.00 0.00 0.00 33 1017.0
20260905014532 75 234 3.0 6.0 0.00 0.00 0.00 33 1017.0
20260905014344 75 231 5.0 0.0 0.00 0.00 0.00 33 1017.0
20260905014025 75 237 2.0 3.0 0.00 0.00 0.00 33 1017.0
20260905013838 76 235 6.0 0.0 0.00 0.00 0.00 33 1017.0
20260905013516 75 218 2.0 3.0 0.00 0.00 0.00 33 1017.0
20260905013331 76 218 3.0 0.0 0.00 0.00 0.00 33 1017.0
20260905013010 76 223 2.0 3.0 0.00 0.00 0.00 33 1017.0
20260905012849 76 242 4.0 0.0 0.00 0.00 0.00 33 1017.0
20260905012541 76 267 2.0 3.0 0.00 0.00 0.00 33 1017.0
20260905012407 76 234 5.0 0.0 0.00 0.00 0.00 33 1017.0
20260905012013 76 202 3.0 3.0 0.00 0.00 0.00 33 1017.0
20260905011840 77 175 2.0 0.0 0.00 0.00 0.00 33 1017.0
20260905011507 76 291 2.0 6.0 0.00 0.00 0.00 33 1017.0
20260905011335 77 293 3.0 0.0 0.00 0.00 0.00 33 1017.0
20260905011100 76 233 2.0 6.0 0.00 0.00 0.00 33 1017.0
20260905011001 76 237 3.0 6.0 0.00 0.00 0.00 33 1017.0
20260905010833 77 277 5.0 0.0 0.00 0.00 0.00 33 1017.0
20260905010553 76 290 4.0 6.0 0.00 0.00 0.00 33 1017.0
20260905010328 76 271 7.0 0.0 0.00 0.00 0.00 33 1017.0
20260905010047 76 238 4.0 6.0 0.00 0.00 0.00 33 1017.0
20260905005843 77 212 6.0 0.0 0.00 0.00 0.00 33 1017.0
20260905005543 77 221 4.0 5.0 0.00 0.00 0.00 33 1017.0
20260905005339 77 225 6.0 0.0 0.00 0.00 0.00 33 1017.0
20260905005032 77 239 4.0 5.0 0.00 0.00 0.00 33 1017.0
20260905004839 78 280 3.0 0.0 0.00 0.00 0.00 33 1017.0
20260905004524 78 239 2.0 6.0 0.00 0.00 0.00 33 1017.0
20260905004333 78 235 2.0 0.0 0.00 0.00 0.00 33 1017.0
20260905004020 78 281 3.0 6.0 0.00 0.00 0.00 33 1017.0
20260905003834 79 241 6.0 0.0 0.00 0.00 0.00 33 1017.0
20260905003518 78 278 3.0 6.0 0.00 0.00 0.00 33 1017.0
20260905003351 79 234 3.0 0.0 0.00 0.00 0.00 33 1017.0
20260905003045 78 288 5.0 6.0 0.00 0.00 0.00 33 1017.0
20260905002827 79 284 5.0 0.0 0.00 0.00 0.00 33 1017.0
20260905002539 78 278 2.0 6.0 0.00 0.00 0.00 33 1017.0
20260905002345 79 207 6.0 0.0 0.00 0.00 0.00 33 1017.0
20260905002012 79 216 3.0 6.0 0.00 0.00 0.00 33 1017.0
20260905001839 79 208 3.0 0.0 0.00 0.00 0.00 33 1017.0
20260905001609 79 286 3.0 6.0 0.00 0.00 0.00 33 1017.0
20260905001513 79 267 1.0 5.0 0.00 0.00 0.00 33 1017.0
20260905001354 79 241 5.0 0.0 0.00 0.00 0.00 33 1017.0
20260905001034 79 223 4.0 6.0 0.00 0.00 0.00 33 1017.0
20260905000853 80 237 5.0 0.0 0.00 0.00 0.00 33 1017.0
20260905000507 79 253 2.0 7.0 0.00 0.00 0.00 33 1017.0
20260905000327 80 221 4.0 0.0 0.00 0.00 0.00 33 1017.0
20260905000116 80 266 3.0 7.0 0.00 0.00 0.00 33 1017.0
20260905000002 79 274 2.0 7.0 0.00 0.00 0.00 33 1017.0
20260904235905 80 288 5.0 0.0 0.00 0.00 0.00 33 1017.0
20260904235529 79 222 3.0 6.0 0.00 0.00 0.00 33 1017.0
20260904235340 80 224 6.0 0.0 0.00 0.00 0.00 33 1017.0
20260904235024 80 284 5.0 6.0 0.00 0.00 0.00 33 1017.0
20260904234858 81 205 3.0 0.0 0.00 0.00 0.00 33 1017.0
20260904234554 80 211 3.0 6.0 0.00 0.00 0.00 33 1017.0
20260904234330 81 277 3.0 0.0 0.00 0.00 0.00 33 1017.0
20260904234050 80 291 2.0 5.0 0.00 0.00 0.00 33 1017.0
20260904233849 80 297 2.0 0.0 0.00 0.00 0.00 33 1017.0
20260904233523 80 235 3.0 6.0 0.00 0.00 0.00 33 1017.0
20260904233346 80 206 3.0 0.0 0.00 0.00 0.00 33 1017.0
20260904233054 79 208 4.0 6.0 0.00 0.00 0.00 33 1017.0
20260904232840 80 228 6.0 0.0 0.00 0.00 0.00 33 1017.0
20260904232548 79 229 4.0 7.0 0.00 0.00 0.00 33 1017.0
20260904232400 80 214 4.0 0.0 0.00 0.00 0.00 33 1017.0
20260904232021 80 245 4.0 7.0 0.00 0.00 0.00 33 1017.0
20260904231835 80 221 2.0 0.0 0.00 0.00 0.00 33 1017.0
20260904231515 79 281 6.0 6.0 0.00 0.00 0.00 33 1017.0
20260904231352 80 285 6.0 0.0 0.00 0.00 0.00 33 1017.0
20260904231047 79 273 4.0 6.0 0.00 0.00 0.00 33 1017.0
20260904230829 80 255 7.0 0.0 0.00 0.00 0.00 33 1017.0
20260904230545 79 287 2.0 6.0 0.00 0.00 0.00 33 1017.0
20260904230326 80 206 8.0 0.0 0.00 0.00 0.00 33 1017.0
20260904230035 79 213 4.0 7.0 0.00 0.00 0.00 33 1017.0
20260904225841 80 221 5.0 0.0 0.00 0.00 0.00 33 1017.0
20260904225527 80 204 6.0 7.0 0.00 0.00 0.00 33 1017.0
20260904225336 80 286 9.0 0.0 0.00 0.00 0.00 33 1017.0
20260904225019 80 207 4.0 7.0 0.00 0.00 0.00 33 1017.0
20260904224832 80 292 5.0 0.0 0.00 0.00 0.00 33 1017.0
20260904224517 79 237 3.0 7.0 0.00 0.00 0.00 33 1017.0
20260904224329 80 209 9.0 0.0 0.00 0.00 0.00 33 1017.0
20260904224011 79 225 3.0 7.0 0.00 0.00 0.00 33 1017.0
20260904223826 80 280 3.0 0.0 0.00 0.00 0.00 33 1017.0
20260904223505 79 280 5.0 7.0 0.00 0.00 0.00 33 1017.0
20260904223405 80 216 9.0 0.0 0.00 0.00 0.00 33 1017.0
20260904223037 79 282 2.0 5.0 0.00 0.00 0.00 33 1017.0
20260904222838 79 178 4.0 0.0 0.00 0.00 0.00 33 1017.0
20260904222528 79 235 4.0 5.0 0.00 0.00 0.00 33 1017.0
20260904222357 79 235 9.0 0.0 0.00 0.00 0.00 33 1017.0
20260904222100 79 293 4.0 7.0 0.00 0.00 0.00 33 1017.0
20260904222003 79 216 4.0 7.0 0.00 0.00 0.00 33 1017.0
20260904221833 80 210 8.0 0.0 0.00 0.00 0.00 33 1017.0
20260904221555 79 273 4.0 7.0 0.00 0.00 0.00 33 1017.0
20260904221329 79 251 10.0 0.0 0.00 0.00 0.00 33 1017.0
20260904221050 79 296 4.0 9.0 0.00 0.00 0.00 33 1017.0
20260904220829 80 175 6.0 0.0 0.00 0.00 0.00 33 1017.0
20260904220540 80 202 5.0 9.0 0.00 0.00 0.00 33 1017.0
20260904220346 80 267 5.0 0.0 0.00 0.00 0.00 33 1017.0
20260904215843 80 199 6.0 0.0 0.00 0.00 0.00 33 1017.0
20260904215527 79 278 6.0 7.0 0.00 0.00 0.00 33 1017.0
20260904215400 79 188 2.0 0.0 0.00 0.00 0.00 33 1017.0
20260904215057 79 216 5.0 7.0 0.00 0.00 0.00 33 1017.0
20260904214833 79 254 4.0 0.0 0.00 0.00 0.00 33 1017.0
20260904214553 79 282 6.0 7.0 0.00 0.00 0.00 33 1017.0
20260904214331 79 278 7.0 0.0 0.00 0.00 0.00 33 1017.0
20260904214046 79 151 3.0 8.0 0.00 0.00 0.00 33 1017.0
20260904213828 80 314 3.0 0.0 0.00 0.00 0.00 33 1017.0
20260904213543 80 209 6.0 9.0 0.00 0.00 0.00 33 1017.0
20260904213326 80 282 5.0 0.0 0.00 0.00 0.00 33 1017.0
20260904213039 79 267 6.0 9.0 0.00 0.00 0.00 33 1017.0
20260904212824 80 271 12.0 0.0 0.00 0.00 0.00 33 1017.0
20260904212539 79 271 7.0 9.0 0.00 0.00 0.00 33 1017.0
20260904212344 80 289 7.0 0.0 0.00 0.00 0.00 33 1017.0
20260904212032 80 269 4.0 6.0 0.00 0.00 0.00 33 1017.0
20260904211841 80 135 6.0 0.0 0.00 0.00 0.00 33 1017.0
20260904211601 80 223 3.0 7.0 0.00 0.00 0.00 33 1017.0
20260904211503 80 150 3.0 7.0 0.00 0.00 0.00 33 1017.0
20260904211335 80 213 5.0 0.0 0.00 0.00 0.00 33 1017.0
20260904211053 80 305 4.0 7.0 0.00 0.00 0.00 33 1017.0
20260904210830 80 215 4.0 0.0 0.00 0.00 0.00 33 1017.0
20260904210547 79 265 4.0 6.0 0.00 0.00 0.00 33 1017.0
20260904210327 80 280 7.0 0.0 0.00 0.00 0.00 33 1017.0
20260904210045 79 299 4.0 11.0 0.00 0.00 0.00 33 1017.0
20260904205843 80 273 9.0 0.0 0.00 0.00 0.00 33 1017.0
20260904205535 79 250 4.0 11.0 0.00 0.00 0.00 33 1017.0
20260904205337 79 276 7.0 0.0 0.00 0.00 0.00 33 1017.0
20260904205029 79 210 6.0 10.0 0.00 0.00 0.00 33 1017.0
20260904204834 79 253 8.0 0.0 0.00 0.00 0.00 33 1017.0
20260904204522 79 281 7.0 10.0 0.00 0.00 0.00 33 1017.0
20260904204331 80 216 7.0 0.0 0.00 0.00 0.00 33 1017.0
20260904204054 79 272 5.0 8.0 0.00 0.00 0.00 33 1017.0
20260904203828 80 229 15.0 0.0 0.00 0.00 0.00 33 1017.0
20260904203547 80 286 6.0 11.0 0.00 0.00 0.00 33 1017.0
20260904203329 80 272 10.0 0.0 0.00 0.00 0.00 33 1017.0
20260904203045 79 286 4.0 11.0 0.00 0.00 0.00 33 1017.0
20260904202848 80 231 8.0 0.0 0.00 0.00 0.00 33 1017.0
20260904202519 79 286 5.0 10.0 0.00 0.00 0.00 33 1017.0
20260904202345 79 264 2.0 0.0 0.00 0.00 0.00 33 1017.0
20260904202051 79 237 4.0 10.0 0.00 0.00 0.00 33 1017.0
20260904201841 79 249 5.0 0.0 0.00 0.00 0.00 33 1017.0
20260904201542 79 212 8.0 10.0 0.00 0.00 0.00 33 1017.0
20260904201358 80 250 7.0 0.0 0.00 0.00 0.00 33 1017.0
20260904201023 79 223 6.0 8.0 0.00 0.00 0.00 33 1017.0
20260904200834 80 241 8.0 0.0 0.00 0.00 0.00 33 1017.0
20260904200549 79 233 6.0 8.0 0.00 0.00 0.00 33 1017.0
20260904200355 79 276 9.0 0.0 0.00 0.00 0.00 33 1017.0
20260904200024 79 240 5.0 7.0 0.00 0.00 0.00 33 1017.0
20260904195827 79 270 9.0 0.0 0.00 0.00 0.00 33 1017.0
20260904195517 79 278 3.0 7.0 0.00 0.00 0.00 33 1017.0
20260904195325 79 288 3.0 0.0 0.00 0.00 0.00 33 1017.0
20260904195009 78 209 4.0 7.0 0.00 0.00 0.00 33 1017.0
20260904194901 78 264 3.0 0.0 0.00 0.00 0.00 33 1017.0
20260904194550 78 216 4.0 7.0 0.00 0.00 0.00 33 1017.0
20260904194335 79 243 4.0 0.0 0.00 0.00 0.00 33 1017.0
20260904194035 79 214 5.0 7.0 0.00 0.00 0.00 33 1017.0
20260904193830 79 214 4.0 0.0 0.00 0.00 0.00 33 1017.0
20260904193527 79 217 4.0 7.0 0.00 0.00 0.00 33 1017.0
20260904193347 79 275 8.0 0.0 0.00 0.00 0.00 33 1017.0
20260904193016 79 290 4.0 6.0 0.00 0.00 0.00 33 1017.0
20260904192840 79 260 3.0 0.0 0.00 0.00 0.00 33 1017.0
20260904192511 79 285 3.0 7.0 0.00 0.00 0.00 33 1017.0
20260904192338 79 284 1.0 0.0 0.00 0.00 0.00 33 1017.0
20260904192005 78 263 5.0 7.0 0.00 0.00 0.00 33 1017.0
20260904191833 79 281 8.0 0.0 0.00 0.00 0.00 33 1017.0
20260904191556 78 225 5.0 7.0 0.00 0.00 0.00 33 1017.0
20260904191332 79 249 6.0 0.0 0.00 0.00 0.00 33 1017.0
20260904191052 79 213 5.0 6.0 0.00 0.00 0.00 33 1017.0
20260904190829 79 184 3.0 0.0 0.00 0.00 0.00 33 1017.0
20260904190546 79 234 4.0 8.0 0.00 0.00 0.00 33 1017.0
20260904190345 79 261 4.0 0.0 0.00 0.00 0.00 33 1017.0
20260904190039 79 264 6.0 8.0 0.00 0.00 0.00 33 1017.0
20260904185839 79 278 4.0 0.0 0.00 0.00 0.00 33 1017.0
20260904185532 79 149 4.0 8.0 0.00 0.00 0.00 33 1017.0
20260904185338 79 230 6.0 0.0 0.00 0.00 0.00 33 1017.0
20260904185023 78 287 3.0 6.0 0.00 0.00 0.00 33 1017.0
20260904184853 79 221 4.0 0.0 0.00 0.00 0.00 33 1017.0
20260904184600 78 270 5.0 6.0 0.00 0.00 0.00 33 1017.0
20260904184327 78 289 8.0 0.0 0.00 0.00 0.00 33 1017.0
20260904184049 77 290 5.0 7.0 0.00 0.00 0.00 33 1017.0
20260904183844 78 235 4.0 0.0 0.00 0.00 0.00 33 1017.0
20260904183541 78 297 6.0 7.0 0.00 0.00 0.00 33 1017.0
20260904183324 78 243 2.0 0.0 0.00 0.00 0.00 33 1017.0
20260904183040 78 239 3.0 6.0 0.00 0.00 0.00 33 1017.0
20260904182843 78 215 3.0 0.0 0.00 0.00 0.00 33 1017.0
20260904182533 77 200 3.0 6.0 0.00 0.00 0.00 33 1017.0
20260904182337 78 157 2.0 0.0 0.00 0.00 0.00 33 1017.0
20260904182023 77 222 4.0 6.0 0.00 0.00 0.00 33 1017.0
20260904181833 78 273 6.0 0.0 0.00 0.00 0.00 33 1017.0
20260904181519 77 250 5.0 5.0 0.00 0.00 0.00 33 1017.0
20260904181330 77 298 3.0 0.0 0.00 0.00 0.00 33 1017.0
20260904181013 76 277 3.0 5.0 0.00 0.00 0.00 33 1017.0
20260904180826 77 274 8.0 0.0 0.00 0.00 0.00 33 1017.0
20260904180541 76 292 3.0 5.0 0.00 0.00 0.00 33 1017.0
20260904180341 76 260 4.0 0.0 0.00 0.00 0.00 33 1017.0
20260904180036 76 252 4.0 5.0 0.00 0.00 0.00 33 1017.0
20260904175837 77 214 3.0 0.0 0.00 0.00 0.00 33 1017.0
20260904175528 76 223 2.0 3.0 0.00 0.00 0.00 33 1017.0
20260904175335 76 198 3.0 0.0 0.00 0.00 0.00 33 1017.0
20260904170336 73 277 3.0 0.0 0.00 0.00 0.00 33 1017.0
20260904170049 72 149 2.0 2.0 0.00 0.00 0.00 33 1017.0
20260904151332 66 248 0.0 0.0 0.00 0.00 0.00 33 1017.0
20260904151018 65 248 2.0 2.0 0.00 0.00 0.00 33 1017.0
20260904150829 65 249 4.0 0.0 0.00 0.00 0.00 33 1017.0
20260904150512 65 250 1.0 1.0 0.00 0.00 0.00 33 1017.0
20260904150407 65 250 3.0 0.0 0.00 0.00 0.00 33 1017.0
20260904150049 64 251 0.0 0.0 0.00 0.00 0.00 33 1017.0